DW2762 Weather Reports


time (UTC)temp
C
wind
direction
speed
KPH
gust
KPH
rain 1hr
cm
rain 24hr
cm
rain mn
cm
humidity
%
barometer
mb
20260507021611 12 268 0.0 3.2 0.00 0.00 0.00 86 1008.8
20260507020110 12 268 0.0 1.6 0.00 0.00 0.00 85 1008.9
20260507014610 12 268 1.6 4.8 0.00 0.00 0.00 84 1008.6
20260507013112 13 250 1.6 4.8 0.00 0.00 0.00 84 1008.6
20260507011610 13 244 4.8 9.7 0.00 0.00 0.00 83 1008.3
20260507010110 13 266 3.2 9.7 0.00 0.00 0.00 82 1008.0
20260507004610 13 245 6.4 12.9 0.00 0.00 0.00 82 1007.9
20260507003110 13 217 4.8 12.9 0.00 0.00 0.00 82 1007.7
20260507001610 13 274 3.2 9.7 0.00 0.00 0.00 81 1007.6
20260507000110 14 288 4.8 12.9 0.00 0.00 0.00 81 1007.2
20260506234610 14 263 6.4 16.1 0.00 0.00 0.00 81 1007.3
20260506233111 14 242 8.0 14.5 0.00 0.00 0.00 81 1007.0
20260506231609 14 217 3.2 6.4 0.00 0.00 0.00 79 1006.7
20260506230109 15 274 3.2 6.4 0.00 0.00 0.00 78 1006.3
20260506224611 14 254 6.4 11.3 0.00 0.00 0.00 77 1006.3
20260506223110 15 175 1.6 4.8 0.00 0.00 0.00 75 1006.2
20260506221609 15 154 0.0 3.2 0.00 0.00 0.00 74 1005.8
20260506220110 15 151 0.0 1.6 0.00 0.00 0.00 74 1005.8
20260506213110 16 194 4.8 8.0 0.00 0.00 0.00 72 1005.9
20260506211609 16 105 0.0 6.4 0.00 0.00 0.00 72 1005.2
20260506210108 16 143 3.2 6.4 0.00 0.00 0.00 71 1005.3
20260506204610 16 165 1.6 8.0 0.00 0.00 0.00 71 1005.1
20260506203108 17 145 3.2 8.0 0.00 0.00 0.00 70 1005.1
20260506200113 17 162 1.6 9.7 0.00 0.00 0.00 68 1004.8
20260506194614 17 157 4.8 12.9 0.00 0.00 0.00 68 1004.5
20260506193113 17 187 3.2 11.3 0.00 0.00 0.00 67 1004.5
20260506190113 18 165 1.6 9.7 0.00 0.00 0.00 64 1004.5
20260506184613 18 140 6.4 17.7 0.00 0.00 0.00 62 1004.5
20260506183113 18 242 6.4 16.1 0.00 0.00 0.00 62 1004.3
20260506181613 19 170 8.0 12.9 0.00 0.00 0.00 61 1004.1
20260506174612 20 155 3.2 14.5 0.00 0.00 0.00 59 1004.0
20260506173112 20 157 6.4 16.1 0.00 0.00 0.00 57 1003.9
20260506171612 20 142 6.4 16.1 0.00 0.00 0.00 56 1004.0
20260506164613 21 158 8.0 22.5 0.00 0.00 0.00 55 1004.2
20260506163113 21 141 11.3 29.0 0.00 0.00 0.00 53 1004.2
20260506161611 21 132 4.8 16.1 0.00 0.00 0.00 52 1004.5
20260506160112 22 147 6.4 25.7 0.00 0.00 0.00 50 1004.6
20260506154611 22 159 6.4 22.5 0.00 0.00 0.00 49 1004.7
20260506153112 22 197 9.7 24.1 0.00 0.00 0.00 50 1004.8
20260506151612 23 165 8.0 16.1 0.00 0.00 0.00 52 1005.0
20260506150111 22 178 6.4 24.1 0.00 0.00 0.00 51 1005.3
20260506144611 23 138 17.7 27.4 0.00 0.00 0.00 49 1005.5
20260506143111 23 165 6.4 22.5 0.00 0.00 0.00 52 1005.8
20260506141611 23 91 12.9 25.7 0.00 0.00 0.00 51 1006.1
20260506134610 22 170 14.5 24.1 0.00 0.00 0.00 53 1006.2
20260506133110 22 115 8.0 22.5 0.00 0.00 0.00 55 1006.4
20260506131610 22 146 9.7 22.5 0.00 0.00 0.00 55 1006.4
20260506130110 22 114 12.9 19.3 0.00 0.00 0.00 53 1006.7
20260506124610 22 132 9.7 24.1 0.00 0.00 0.00 55 1006.9
20260506121610 21 161 8.0 17.7 0.00 0.00 0.00 53 1007.2
20260506120110 22 179 9.7 17.7 0.00 0.00 0.00 51 1007.3
20260506114609 22 19 6.4 14.5 0.00 0.00 0.00 53 1007.3
20260506113111 22 140 4.8 16.1 0.00 0.00 0.00 52 1007.4
20260506111609 22 130 6.4 14.5 0.00 0.00 0.00 51 1007.4
20260506110109 21 322 4.8 19.3 0.00 0.00 0.00 53 1007.6
20260506104611 22 173 8.0 16.1 0.00 0.00 0.00 50 1007.8
20260506100111 22 141 8.0 14.5 0.00 0.00 0.00 52 1008.0
20260506094609 22 160 8.0 17.7 0.00 0.00 0.00 55 1008.2
20260506093110 21 195 6.4 11.3 0.00 0.00 0.00 53 1008.2
20260506091609 20 167 4.8 17.7 0.00 0.00 0.00 55 1008.3
20260506090110 21 153 8.0 17.7 0.00 0.00 0.00 56 1008.4
20260506083109 19 218 11.3 20.9 0.00 0.00 0.00 61 1008.4
20260506081609 20 157 6.4 12.9 0.00 0.00 0.00 63 1008.5
20260506080114 20 125 11.3 20.9 0.00 0.00 0.00 65 1008.5
20260506073113 18 196 8.0 12.9 0.00 0.00 0.00 69 1008.6
20260506070114 17 175 3.2 11.3 0.00 0.00 0.00 73 1008.7
20260506061613 15 208 6.4 9.7 0.00 0.00 0.00 81 1008.7
20260506060113 14 198 8.0 9.7 0.00 0.00 0.00 82 1008.5
20260506044612 11 173 0.0 0.0 0.00 0.00 0.00 89 1008.0
20260506043112 11 174 0.0 1.6 0.00 0.00 0.00 89 1008.0
20260506041612 10 314 1.6 3.2 0.00 0.00 0.00 89 1007.9
20260506040112 10 321 0.0 0.0 0.00 0.00 0.00 88 1007.7
20260506033111 10 321 0.0 0.0 0.00 0.00 0.00 86 1007.5
20260506031611 10 321 0.0 0.0 0.00 0.00 0.00 86 1007.5
20260506024611 11 321 0.0 0.0 0.00 0.00 0.00 84 1007.2